Hyannis, MA

3:16 PM EST on December 17, 2017 (GMT -0500)
Barnstable Municipal-Boardman-Polando Field

Weather History for KHYA - July, 2013

Change the Weather History Date:

Wednesday, July 17, 2013

  Actual Average Record
Temperature  
Mean Temperature 76 °F -  
Max Temperature 84 °F 79 °F 90 °F (1988)
Min Temperature 68 °F 64 °F 50 °F (1954)
Cooling Degree Days 11    
Growing Degree Days 26 (Base 50)    
Moisture  
Dew Point 68 °F    
Average Humidity 75    
Maximum Humidity 93    
Minimum Humidity 57    
Precipitation  
Precipitation 0.00 in - - ()
Sea Level Pressure  
Sea Level Pressure 30.13 in    
Wind  
Wind Speed 3 mph (SSW)    
Max Wind Speed 13 mph    
Max Gust Speed -    
Visibility 10 miles    
Events      
Averages and records for this station are not official NWS values.
T = Trace of Precipitation, MM = Missing Value Source: NWS Daily Summary

Daily Weather History Graph

Daily Weather History Graph

Search for Another Location

Airport or City:

Trip Planner

Search our weather history database for the weather conditions in past years. The results will help you decide how hot, cold, wet, or windy it might be!

Date:

Astronomy

Jul. 17, 2013 Rise Set
Actual Time 5:21 AM EDT 8:12 PM EDT
Civil Twilight 4:48 AM EDT 8:45 PM EDT
Nautical Twilight 4:07 AM EDT 9:26 PM EDT
Astronomical Twilight 3:19 AM EDT 10:14 PM EDT
Moon 2:56 PM EDT 12:28 AM EDT
Length of Visible Light 15h 56m
Length of Day
14h 50m
Waxing Gibbous, 67% of the Moon is Illuminated
Jul 17
Waxing Gibbous
Jul 22
Full
Jul 29
Last Quarter
Aug 6
New
Aug 14
First Quarter

Hourly Weather History & Observations

Time (EDT) Temp. Heat Index Dew Point Humidity Pressure Visibility Wind Dir Wind Speed Gust Speed Precip Events Conditions
12:56 AM 70.0 °F - 66.9 °F 90% 30.14 in 9.0 mi Calm Calm - N/A   Clear
1:56 AM 70.0 °F - 66.9 °F 90% 30.14 in 9.0 mi Calm Calm - N/A   Clear
2:56 AM 69.1 °F - 66.0 °F 90% 30.14 in 9.0 mi Calm Calm - N/A   Clear
3:56 AM 69.1 °F - 66.0 °F 90% 30.14 in 9.0 mi Calm Calm - N/A   Unknown
4:56 AM 68.0 °F - 66.0 °F 93% 30.15 in 8.0 mi Calm Calm - N/A   Unknown
5:56 AM 69.1 °F - 66.0 °F 90% 30.17 in 8.0 mi Calm Calm - N/A   Unknown
6:56 AM 75.0 °F - 68.0 °F 79% 30.17 in 10.0 mi NE 3.5 mph - N/A   Unknown
7:56 AM 79.0 °F - 68.0 °F 69% 30.18 in 10.0 mi Calm Calm - N/A   Clear
8:56 AM 81.0 °F 83.8 °F 68.0 °F 65% 30.18 in 10.0 mi Calm Calm - N/A   Clear
9:56 AM 84.9 °F 88.2 °F 68.0 °F 57% 30.18 in 10.0 mi SSW 5.8 mph - N/A   Clear
10:56 AM 82.9 °F 87.5 °F 71.1 °F 67% 30.17 in 10.0 mi Variable 4.6 mph - N/A   Clear
11:56 AM 82.0 °F 84.9 °F 68.0 °F 62% 30.16 in - SSE 4.6 mph - N/A   Clear
12:56 PM 82.9 °F 86.5 °F 69.1 °F 63% 30.15 in - South 6.9 mph - N/A   Clear
1:56 PM 82.9 °F 85.4 °F 66.9 °F 58% 30.14 in 10.0 mi SSW 6.9 mph - N/A   Clear
2:56 PM 81.0 °F 83.8 °F 68.0 °F 65% 30.14 in 10.0 mi South 8.1 mph - N/A   Clear
3:56 PM 79.0 °F - 68.0 °F 69% 30.12 in 10.0 mi SSE 9.2 mph - N/A   Clear
4:56 PM 79.0 °F - 71.1 °F 77% 30.09 in 10.0 mi South 9.2 mph - N/A   Clear
5:56 PM 78.1 °F - 68.0 °F 71% 30.08 in 10.0 mi SSW 9.2 mph - N/A   Clear
6:56 PM 77.0 °F - 68.0 °F 74% 30.07 in 10.0 mi SSW 9.2 mph - N/A   Clear
7:56 PM 75.9 °F - 68.0 °F 76% 30.05 in 10.0 mi SSW 8.1 mph - N/A   Clear
8:56 PM 75.9 °F - 70.0 °F 82% 30.07 in 10.0 mi SW 9.2 mph - N/A   Clear
9:56 PM 77.0 °F - 66.9 °F 71% 30.07 in 10.0 mi SW 11.5 mph - N/A   Clear
10:56 PM 77.0 °F - 69.1 °F 76% 30.06 in 10.0 mi SW 12.7 mph - N/A   Clear
11:56 PM 75.9 °F - 70.0 °F 82% 30.05 in 10.0 mi SW 9.2 mph - N/A   Clear